Theta_e
339 339 339 339 338 337 336 335 334 335 335 333 331 331 331 332 332 331 332 332 331 331 330 329 328 328 328 327 324 321 319 317 315 312 310 309 308 307 306 304 302 300 299 300 300 301 301 300 301 300 301 302 302 301 300 300 301 302 302 303 305 309 311 311 311 310 306 305 305 301 299 303 303 299 297 297 297 298 299 299 298 298 299 301 302
339 339 339 339 338 337 336 334 334 334 333 331 330 329 329 331 331 331 331 331 330 330 330 329 328 327 327 325 321 320 319 317 314 311 309 308 307 306 305 302 300 300 299 299 300 300 300 300 300 301 301 302 302 301 301 302 302 301 301 303 305 307 310 310 309 309 307 304 303 300 299 300 301 299 297 297 298 298 298 299 299 299 300 301 302
339 339 338 338 337 336 336 334 334 334 332 330 329 329 330 331 331 331 331 330 330 330 329 328 327 326 325 323 321 319 319 317 314 311 309 308 306 306 303 300 299 299 299 299 299 300 300 300 300 300 300 301 300 300 302 303 303 303 302 302 304 306 309 309 308 308 307 304 302 300 298 298 299 298 297 298 298 299 299 300 300 301 301 302 302
339 339 337 336 336 336 336 335 334 334 333 331 329 329 331 330 330 331 331 329 329 329 328 327 325 325 323 322 320 318 318 316 313 310 308 307 306 305 302 300 300 300 299 299 299 299 300 299 299 299 299 299 300 300 301 303 304 306 305 304 305 306 307 307 308 307 307 306 304 301 298 297 297 297 298 298 298 299 299 300 301 301 302 303 302
338 337 336 335 336 336 335 335 334 333 333 332 330 331 331 330 329 331 330 329 329 328 327 326 324 323 322 320 319 318 317 315 312 309 308 307 305 302 300 300 302 302 300 299 299 299 299 299 299 299 299 299 299 300 300 301 303 305 307 306 307 308 307 306 305 306 306 305 304 301 297 296 297 296 297 298 298 298 299 300 301 301 302 303 302
337 336 335 335 336 336 335 334 333 333 332 332 331 331 330 330 330 331 330 329 328 327 326 324 322 321 320 319 318 317 316 314 310 308 308 306 304 301 300 302 302 302 301 300 299 299 299 299 299 299 299 299 299 299 299 300 301 303 306 308 308 308 309 307 304 304 305 304 303 301 297 296 296 296 297 298 298 299 299 300 301 301 302 303 302
336 335 336 336 335 335 335 334 333 332 332 331 332 331 329 330 331 331 330 329 328 326 325 323 321 320 319 318 317 316 315 312 310 308 307 304 302 302 302 303 302 301 301 299 299 300 299 299 299 299 299 299 299 299 298 299 299 301 305 307 308 308 308 307 304 302 303 303 302 300 297 295 296 296 296 297 298 299 300 301 301 301 302 303 302
335 335 336 336 335 334 334 332 332 332 332 331 331 330 330 331 332 331 329 328 327 325 324 322 320 319 318 317 316 315 313 312 310 308 306 304 303 303 303 303 302 301 300 299 299 299 299 298 298 298 298 298 298 298 298 299 299 300 302 304 307 308 307 307 305 301 300 301 301 298 296 296 296 296 296 297 298 299 300 301 302 301 302 303 302
335 335 335 335 335 334 333 332 332 332 331 332 331 331 330 331 331 330 329 327 326 324 323 321 319 318 318 317 315 314 312 311 309 307 306 304 303 302 302 302 302 301 300 299 299 298 298 298 298 298 298 298 297 298 298 298 299 299 300 300 302 305 306 306 305 301 297 298 298 297 296 296 296 296 296 297 297 298 299 301 301 301 302 302 302
335 335 335 334 333 332 332 332 332 332 331 331 331 330 330 330 331 330 328 326 325 324 321 320 318 317 317 316 314 312 311 310 308 307 305 303 302 301 302 302 301 300 299 298 298 298 297 297 297 297 297 297 297 297 297 298 298 298 299 299 299 300 302 302 302 300 297 296 296 296 295 296 296 296 296 296 296 297 298 300 301 301 301 301 301
335 335 334 334 333 332 332 332 332 332 331 331 331 330 330 330 330 329 327 326 324 322 320 319 318 316 316 315 313 311 310 309 308 307 304 302 300 300 301 302 301 299 298 298 297 297 297 297 297 297 297 297 297 297 297 297 298 298 298 298 298 298 298 298 298 298 296 295 296 296 296 296 296 296 296 296 296 296 298 299 301 301 301 301 301
334 333 333 333 332 332 331 332 332 331 330 330 331 330 329 329 329 328 327 325 323 320 319 318 317 315 315 313 311 310 309 308 307 305 303 301 300 300 301 301 299 298 297 297 297 297 297 297 297 297 297 296 296 296 297 297 297 298 297 297 297 297 297 297 297 297 296 296 296 296 296 296 295 296 296 296 296 296 296 298 300 301 301 301 301
333 333 333 332 332 331 330 331 331 330 329 330 331 329 328 328 328 327 325 324 321 319 318 317 316 315 314 312 310 309 309 308 306 303 301 300 300 300 300 299 298 297 296 296 296 296 296 296 296 296 296 296 296 296 297 297 297 297 297 297 297 297 297 297 297 297 296 296 296 296 296 296 296 296 296 295 296 296 297 298 300 301 301 301 301
334 334 333 332 330 329 329 329 329 329 330 331 331 329 327 327 327 326 324 322 320 319 318 316 315 314 313 311 310 309 308 307 304 302 300 301 301 301 300 299 298 297 297 297 296 296 296 296 296 297 297 298 298 297 297 297 297 297 297 297 296 297 297 297 297 297 296 297 297 297 297 297 297 297 296 296 296 296 297 299 300 300 301 301 301
333 333 332 331 329 328 328 328 328 329 331 331 330 328 326 327 326 324 322 321 319 318 317 315 314 313 312 311 310 308 308 306 302 300 300 301 303 302 300 299 299 299 299 298 297 297 297 296 297 298 299 299 299 299 298 298 298 298 298 297 296 296 297 297 297 297 297 298 299 299 299 299 299 298 297 297 297 296 297 299 299 300 301 301 301
333 332 331 329 328 327 327 328 329 329 329 329 327 327 326 326 325 324 322 320 318 317 315 314 313 312 311 311 309 308 307 304 300 299 300 302 304 303 301 301 301 301 300 299 299 299 297 296 297 298 299 299 299 299 299 299 300 301 300 298 297 296 296 297 297 297 298 300 300 300 300 299 299 299 298 298 298 297 297 299 299 300 300 300 300
331 329 328 328 328 327 327 329 329 329 327 327 326 325 325 325 324 323 322 320 317 315 314 313 312 311 310 310 309 307 305 301 298 299 301 303 304 303 302 302 302 301 301 300 299 299 297 296 297 297 297 298 298 299 299 299 300 301 300 300 300 299 297 297 297 298 299 301 301 301 300 299 299 299 298 299 299 298 298 298 298 299 300 300 300
329 328 327 327 327 327 327 328 329 328 327 327 326 325 325 324 323 321 320 318 316 314 313 312 310 309 309 309 308 305 301 298 297 299 300 302 303 302 301 301 301 301 300 299 298 297 296 296 296 296 297 297 298 298 299 300 301 301 301 302 302 301 298 297 298 299 300 301 301 301 300 299 299 299 298 299 299 298 298 298 298 299 299 299 299
327 326 326 326 326 326 326 328 330 330 329 328 327 326 325 324 322 319 318 317 315 313 312 310 308 307 308 308 306 303 299 297 297 298 300 300 301 302 302 301 300 300 299 298 297 296 296 296 296 296 296 297 297 298 299 299 300 301 302 302 300 298 297 297 299 300 301 301 301 300 300 299 299 299 298 299 299 299 299 298 298 298 299 299 299
327 325 324 324 325 327 328 330 331 330 329 327 327 326 325 322 320 318 317 315 313 311 310 308 307 307 308 307 305 301 299 297 296 297 299 300 301 303 303 301 299 299 298 297 296 296 296 296 296 296 296 297 297 297 297 298 298 298 299 299 297 296 296 298 300 301 301 301 300 300 300 299 299 299 299 299 299 299 299 299 298 298 298 298 298
327 325 324 324 326 329 330 330 330 329 327 326 326 324 323 321 319 318 316 314 312 310 309 308 307 306 307 306 303 300 298 296 296 297 299 300 302 304 304 302 299 297 297 296 296 296 296 296 296 296 296 297 297 297 297 297 297 297 297 297 296 296 297 298 300 301 301 301 300 300 300 299 299 300 299 299 299 299 299 299 298 298 299 298 298
326 325 323 324 327 330 329 328 328 327 325 324 324 322 321 319 318 316 314 313 311 310 309 308 307 306 306 304 301 299 297 296 296 297 298 301 303 304 304 303 300 298 296 295 295 295 295 296 296 296 296 296 296 297 297 297 297 297 297 296 296 297 298 298 299 300 301 300 300 300 300 299 299 299 299 299 299 299 299 298 298 298 299 298 298
325 324 323 325 327 328 327 326 326 325 323 322 321 320 319 317 315 314 313 312 310 310 309 308 307 306 305 302 300 298 296 295 296 296 298 301 303 303 303 303 302 300 299 297 297 296 296 295 296 296 296 296 296 297 297 297 297 296 296 296 296 297 298 299 299 300 300 300 299 300 300 299 299 299 299 299 299 299 299 299 299 299 299 299 299
324 323 323 325 326 326 325 324 324 322 321 321 320 318 317 315 314 313 313 311 310 310 309 307 306 306 304 301 299 297 296 295 295 296 299 301 302 302 303 302 302 302 301 301 301 300 297 296 296 296 296 296 296 297 297 297 296 296 296 296 296 298 299 299 299 300 300 300 299 299 299 299 299 299 299 299 299 299 299 299 299 299 299 299 299
323 323 323 324 326 325 323 322 322 321 320 319 318 318 316 315 314 313 312 311 310 309 308 307 307 305 303 301 299 297 295 295 295 296 299 301 302 302 303 302 302 302 302 303 303 302 300 297 295 295 296 296 296 297 296 296 296 296 296 296 297 298 298 298 298 300 300 299 299 299 299 299 299 300 300 299 299 300 299 299 300 300 299 299 300
323 323 323 323 324 323 322 321 321 320 319 318 317 317 316 314 313 313 312 311 310 309 308 307 306 305 303 301 299 297 295 295 295 296 298 300 301 302 303 302 302 302 303 304 303 303 301 297 295 295 296 296 296 296 296 296 296 296 297 298 298 297 298 297 298 300 299 299 299 300 299 300 300 300 300 299 299 300 300 299 300 300 299 299 300
323 323 323 322 321 321 321 320 319 319 317 317 316 315 314 314 313 313 312 311 310 308 308 307 306 305 303 302 300 297 295 295 295 295 297 299 301 302 302 302 301 302 303 303 303 302 300 296 295 295 295 295 296 296 296 296 296 296 298 300 299 298 298 298 299 299 299 298 300 300 299 300 300 300 300 300 299 300 300 299 299 300 299 299 300
322 322 322 321 320 320 320 319 319 317 316 316 315 314 314 313 313 313 312 310 309 308 307 307 306 305 304 303 301 299 296 295 295 295 296 297 299 301 302 301 301 302 303 302 302 301 299 295 294 295 295 295 295 296 296 297 297 298 299 299 299 299 299 299 299 299 298 298 300 300 299 300 300 300 300 300 299 300 300 299 299 299 299 299 299
322 321 321 321 320 320 319 318 318 317 315 315 314 314 314 313 312 312 311 310 309 308 308 307 306 306 305 304 302 300 297 295 295 295 295 296 297 299 300 300 300 301 302 301 300 299 297 295 294 295 295 295 295 297 299 299 300 300 299 299 299 299 299 300 300 299 299 298 299 300 299 300 300 300 299 299 299 299 300 299 299 299 299 299 299
321 320 320 320 319 319 318 317 316 316 315 314 314 314 313 313 312 311 311 310 309 308 308 307 306 305 305 305 303 301 298 296 296 295 295 295 295 296 298 298 298 300 300 299 297 296 295 294 294 294 295 296 298 300 302 301 301 301 301 300 299 299 299 300 300 299 299 299 299 299 299 299 300 299 299 299 299 299 299 299 299 299 299 299 299
320 319 319 319 318 318 317 316 315 314 314 314 313 313 312 312 311 310 310 310 309 308 307 307 306 305 305 305 304 302 300 298 297 295 295 294 294 295 296 296 296 297 298 297 295 295 295 294 294 296 297 299 301 301 301 301 301 300 300 300 300 299 300 300 300 299 300 300 299 299 300 300 299 299 299 299 299 299 299 299 299 299 299 299 299
320 319 319 318 318 317 316 315 314 314 313 313 313 312 312 311 311 310 310 310 309 308 307 306 306 305 306 306 305 303 302 301 299 297 295 295 294 294 295 294 294 295 297 298 297 296 296 297 298 300 301 301 301 301 300 300 300 300 299 300 300 300 300 300 300 300 300 300 300 300 300 300 299 299 299 299 299 299 299 299 299 299 299 299 299
320 319 318 318 317 316 315 315 314 313 313 313 313 312 311 311 311 311 310 310 309 309 307 306 306 306 307 307 306 304 303 302 301 300 297 295 294 294 294 294 294 295 298 300 299 297 298 300 301 301 301 301 301 300 300 299 300 300 300 300 300 300 300 300 300 301 300 300 300 300 300 299 299 299 299 299 299 299 299 299 299 299 299 299 299
320 319 318 317 317 315 315 314 314 314 314 313 313 312 311 311 311 310 310 309 309 309 307 306 306 306 307 307 307 305 304 303 303 302 299 296 294 295 295 294 294 296 299 301 299 297 298 300 301 300 300 301 300 300 300 299 300 300 300 300 300 301 301 301 301 301 301 300 300 300 299 299 299 299 299 299 299 299 299 299 299 299 299 299 298
319 319 318 317 316 315 315 314 314 314 313 313 312 311 311 311 310 310 309 309 308 308 307 306 306 306 306 306 306 306 304 303 303 303 301 298 295 295 295 295 296 296 298 299 298 297 298 300 300 301 301 301 301 301 300 300 300 300 300 300 300 301 301 301 301 301 300 300 299 299 299 299 299 299 299 299 299 299 299 299 298 299 298 298 298
318 318 317 316 315 314 314 314 313 313 312 312 312 311 310 310 309 309 309 308 307 308 307 306 306 306 305 306 306 305 304 303 303 302 302 300 297 295 295 296 296 296 296 297 296 296 298 300 301 301 301 302 301 301 301 300 300 300 300 300 301 301 301 301 301 300 300 300 299 299 299 299 299 299 299 299 299 299 298 298 298 298 298 298 298
318 317 316 315 314 314 314 314 314 313 312 312 312 311 310 309 309 309 308 307 306 307 307 306 306 305 304 305 305 304 304 303 302 302 302 300 298 296 295 296 296 296 295 295 294 295 299 302 302 301 301 301 301 301 301 300 301 301 301 301 301 301 301 301 301 300 300 299 299 299 299 299 299 299 299 299 298 298 298 298 298 298 298 298 298
317 317 316 315 314 314 314 313 313 312 312 311 311 310 309 308 308 308 307 306 306 306 306 306 306 305 304 304 304 304 303 302 302 301 301 299 297 295 295 295 295 295 294 294 293 295 299 302 302 301 301 301 301 302 302 301 301 301 301 301 301 301 301 301 301 300 300 299 299 299 299 299 299 299 299 298 298 298 298 298 298 298 298 298 298
316 316 316 315 315 314 313 313 312 312 311 311 310 309 307 306 306 306 306 306 306 306 306 305 305 305 305 304 304 303 303 302 301 301 299 297 295 294 294 294 294 295 295 296 295 295 298 301 302 301 301 302 302 302 302 302 302 302 301 302 301 301 301 301 300 300 300 299 299 299 299 299 299 298 298 298 298 298 298 298 298 298 298 297 297
316 316 315 315 314 313 313 313 312 311 311 311 309 307 305 304 305 305 305 305 305 305 305 305 305 305 305 304 304 304 303 301 300 298 297 295 293 293 293 294 294 296 298 299 299 299 299 301 301 301 301 302 302 302 302 302 302 301 302 301 301 301 301 300 300 300 299 299 299 299 299 299 298 298 298 298 298 298 298 298 297 297 297 297 296
315 315 315 314 313 313 313 312 311 311 311 310 309 307 305 303 304 304 303 303 304 304 303 303 303 302 302 302 302 303 302 301 298 296 295 294 293 293 294 293 294 297 300 301 301 301 301 301 301 302 302 302 302 302 302 302 301 301 301 301 301 301 300 300 300 300 300 299 299 299 298 298 298 298 298 298 298 298 298 297 297 297 297 296 294
315 314 313 313 313 313 313 312 311 311 310 310 309 307 304 302 303 302 302 302 302 301 301 302 302 301 300 299 299 299 300 299 297 295 294 294 293 293 293 293 295 299 302 302 302 302 302 301 301 302 302 302 302 302 302 301 301 301 301 301 301 300 300 300 300 299 299 299 298 298 298 298 298 298 298 298 298 298 297 297 297 296 295 293 290
315 314 313 313 313 312 312 311 310 310 309 309 308 307 304 302 302 301 301 301 301 300 301 302 302 301 300 299 298 296 296 296 295 294 293 293 293 293 293 293 296 301 302 301 302 302 301 301 301 302 302 302 302 301 302 301 301 301 301 300 300 300 300 300 299 299 299 298 298 298 298 298 298 298 298 298 297 297 297 297 296 294 292 290 288
314 313 313 313 312 312 312 311 309 309 308 308 308 307 305 303 302 301 301 302 301 301 302 303 303 302 300 299 298 296 295 294 294 294 293 294 294 293 293 293 297 301 302 301 301 302 301 301 302 301 301 301 301 301 301 301 301 301 301 300 300 300 299 299 299 299 298 298 298 298 298 298 298 298 298 297 297 297 296 295 293 291 289 288 287
314 313 313 312 311 311 311 310 309 309 308 308 307 306 304 303 302 301 302 302 302 302 303 304 303 302 301 300 300 298 295 295 296 296 295 295 295 294 293 295 298 301 301 301 301 302 301 301 302 301 301 301 301 300 301 301 301 301 300 300 299 299 299 299 298 298 298 298 298 298 298 298 298 298 297 297 297 296 295 292 290 289 287 286 285
313 313 313 312 311 311 310 309 309 309 308 308 307 305 303 302 301 302 303 303 303 303 303 303 302 302 300 300 301 299 296 296 298 298 297 297 298 296 296 298 300 300 301 301 301 302 302 301 301 301 301 301 300 300 300 300 300 300 300 299 299 299 299 299 298 298 298 298 298 298 298 298 298 297 297 297 296 294 292 290 288 287 286 285 284
312 312 311 311 310 310 309 309 309 309 308 307 307 306 304 302 301 302 303 303 303 303 303 303 303 302 301 300 302 301 298 297 298 299 297 298 299 298 298 300 300 300 301 301 301 301 301 301 301 301 301 300 300 299 299 299 299 299 299 299 299 299 298 298 298 298 298 298 298 298 298 298 298 297 296 296 294 292 290 288 287 286 285 284 284
312 311 310 310 310 310 309 309 309 309 308 308 308 307 304 302 301 302 302 303 303 303 303 302 302 302 301 300 302 302 299 297 298 299 298 299 299 299 299 300 300 300 300 301 301 301 301 301 301 301 300 299 299 299 299 299 299 299 299 299 299 298 298 298 298 298 298 298 298 298 298 298 297 296 295 294 292 290 288 286 285 285 284 284 283
312 312 311 310 310 310 310 310 310 309 309 308 308 307 305 303 302 302 302 302 302 302 302 302 302 302 302 301 301 302 301 299 298 299 298 298 299 299 299 300 300 300 300 300 300 300 300 300 300 299 299 299 299 299 299 299 299 299 299 299 298 298 298 298 298 298 298 298 298 298 298 297 296 294 293 291 289 287 286 285 284 284 283 283 283
313 312 312 311 311 310 310 310 310 310 309 308 308 307 306 305 304 303 301 301 301 301 301 302 302 302 302 302 301 302 301 300 299 298 298 298 298 299 299 299 299 299 300 300 300 300 299 299 299 298 299 299 299 299 299 299 299 299 299 299 298 298 298 298 298 298 298 298 298 297 297 296 294 292 291 289 287 286 285 284 284 283 283 283 282
312 312 311 311 311 310 310 310 309 309 309 309 308 308 306 306 305 303 302 301 301 301 302 302 302 302 302 302 302 301 301 300 298 297 297 297 297 298 298 299 299 299 299 299 299 299 298 298 298 299 299 299 299 299 299 300 300 299 299 298 298 298 298 298 298 298 298 298 297 296 295 294 292 291 288 287 285 285 284 283 283 283 282 282 282
Wind_Speed
28 27 27 26 25 25 24 24 25 25 25 25 22 20 18 16 16 16 15 15 15 17 17 15 12 10 8 7 8 9 9 9 10 12 12 11 10 9 9 9 9 10 13 14 15 15 16 16 16 16 15 13 12 12 11 11 9 8 10 10 12 16 15 11 9 7 10 12 12 14 17 16 16 19 21 21 23 23 22 23 24 24 24 24 22
29 27 26 25 24 25 25 24 25 25 25 25 23 21 19 17 16 16 16 16 17 18 17 13 11 8 7 9 10 8 7 8 11 13 12 11 10 10 10 10 10 12 15 15 16 16 15 15 15 14 14 13 12 13 12 12 10 9 11 12 13 15 15 12 10 8 9 12 13 14 18 19 18 20 21 22 23 22 21 22 23 25 26 26 25
28 26 27 26 24 25 25 24 25 26 26 26 25 23 20 18 17 16 17 19 19 18 16 13 10 8 8 10 10 8 7 9 12 13 12 11 11 11 11 11 12 13 15 15 15 16 15 15 15 14 13 12 13 13 13 13 12 11 12 14 15 15 15 13 11 9 9 11 13 16 18 19 19 19 20 21 21 20 20 21 22 23 24 26 26
26 24 25 25 24 25 25 24 25 26 27 29 28 24 21 19 18 18 20 21 21 19 16 12 9 8 10 12 11 10 9 10 13 13 12 12 12 12 11 12 13 14 15 15 15 16 16 15 15 14 13 13 12 13 13 14 14 13 12 13 15 16 14 12 11 10 9 9 11 15 17 18 19 19 19 20 21 20 20 21 21 22 23 24 25
26 22 22 24 24 25 24 23 25 26 28 29 27 22 20 20 20 21 23 22 21 19 15 11 9 9 10 11 12 12 10 10 14 14 14 13 12 12 13 14 15 15 16 16 16 16 16 16 15 15 14 14 13 12 12 13 15 15 13 11 13 14 14 12 11 10 9 9 10 12 15 17 18 18 18 19 21 20 21 21 21 21 22 22 23
26 23 25 27 27 26 25 24 25 26 27 27 24 22 21 21 22 24 25 23 22 19 14 11 11 10 11 12 13 12 11 12 15 15 14 14 14 15 16 17 17 17 17 17 17 17 16 15 14 14 14 13 14 13 13 13 15 16 15 13 12 13 12 10 9 9 9 9 10 11 15 17 18 18 18 19 20 21 22 23 22 21 21 20 22
27 25 27 29 28 27 26 26 26 27 26 24 22 22 22 21 23 26 26 24 22 18 13 12 12 11 13 14 13 13 12 13 15 16 15 16 17 17 18 17 17 17 17 17 17 16 14 13 12 11 11 11 12 14 14 14 16 17 16 15 12 11 11 8 7 8 9 9 9 11 14 17 18 19 19 18 19 19 22 24 24 25 23 21 22
28 27 27 29 28 28 28 27 27 27 25 23 22 22 21 21 23 26 27 25 21 16 13 15 15 13 14 15 13 13 14 15 16 17 17 18 18 18 18 18 18 18 18 17 16 14 13 14 13 13 12 12 12 13 13 13 14 16 16 16 15 11 10 9 6 7 10 10 9 10 14 17 19 20 21 21 22 22 22 23 24 26 26 24 23
29 28 27 28 28 29 29 28 28 27 25 24 23 22 21 22 24 27 28 25 20 16 14 16 18 16 16 17 14 14 16 17 17 18 18 18 18 18 19 19 18 18 18 17 15 15 15 15 15 15 15 15 15 15 14 14 14 14 14 15 16 14 12 10 7 8 10 11 11 12 15 18 20 22 23 24 24 23 22 22 24 25 26 26 26
29 29 26 25 28 30 30 29 28 27 25 24 23 21 22 24 26 28 28 24 21 18 16 18 19 19 18 18 16 16 17 18 19 19 19 19 19 20 20 19 18 18 17 17 17 17 17 16 16 16 16 17 17 16 17 16 16 16 15 14 15 14 13 13 11 10 11 12 13 14 16 19 21 22 23 23 23 22 22 23 24 25 26 26 26
29 30 27 25 26 28 28 28 26 25 24 24 22 21 23 27 29 29 27 24 20 19 19 19 20 20 19 17 17 20 20 20 21 20 19 19 20 20 19 18 18 18 17 18 18 18 18 18 18 18 18 17 17 16 17 17 16 16 15 15 14 13 13 13 13 12 12 13 14 15 17 19 20 21 22 23 22 23 23 23 25 25 26 27 27
28 28 27 27 27 27 27 27 26 25 25 24 22 23 27 29 30 28 26 23 21 20 20 20 20 20 19 18 20 22 22 22 22 20 20 20 20 20 20 19 18 18 18 18 18 18 18 19 19 19 19 18 17 16 16 16 15 15 15 14 14 13 13 12 12 13 13 13 14 15 17 19 20 21 23 24 23 23 23 24 25 24 25 26 26
27 28 27 27 28 28 28 28 27 26 26 24 24 26 28 30 29 27 26 24 22 21 21 20 21 21 20 20 23 24 23 23 23 21 21 21 20 20 20 19 18 18 19 19 19 19 19 19 20 20 19 18 17 16 15 15 14 14 14 13 13 13 12 12 12 13 13 13 14 16 17 18 20 22 23 25 25 24 24 25 25 23 23 23 24
28 29 28 27 28 27 27 28 27 26 25 25 26 28 29 30 29 28 27 25 24 24 23 22 23 23 22 23 25 24 23 24 23 22 22 21 20 19 19 19 20 20 20 20 19 20 19 19 20 20 18 17 16 16 15 15 13 13 13 13 12 11 11 11 11 12 12 13 15 18 18 19 20 22 23 25 25 24 23 24 24 23 22 20 19
30 29 28 28 27 27 27 27 26 26 25 26 29 31 31 31 30 29 29 26 24 23 23 23 23 21 22 23 24 24 23 23 23 23 23 22 20 19 19 20 20 20 19 19 18 17 18 19 20 19 17 16 15 15 15 14 12 10 10 11 10 9 9 9 10 11 12 14 16 18 20 20 20 22 23 23 24 24 22 22 22 21 20 19 18
30 28 27 27 27 27 27 27 26 26 26 29 32 32 32 31 30 29 28 26 24 22 22 22 21 21 22 23 22 22 23 24 24 24 24 23 21 20 21 20 20 20 19 18 18 18 18 19 18 16 16 16 15 14 13 12 10 7 5 6 7 8 7 7 7 9 12 16 17 17 18 18 18 19 21 20 22 24 23 22 22 20 20 22 21
29 27 25 24 25 26 26 27 27 27 28 32 33 32 32 31 29 28 26 24 22 21 21 21 21 23 25 22 19 21 23 25 25 26 27 25 22 21 22 21 21 21 20 20 20 20 19 17 16 14 15 15 14 14 13 12 10 6 4 4 4 4 5 6 7 9 13 15 16 15 16 17 16 17 19 19 20 24 24 24 24 22 21 23 23
25 24 24 24 24 26 27 27 28 29 30 32 32 32 31 29 27 25 24 22 21 20 19 18 20 24 25 20 19 23 26 26 27 28 28 25 22 20 20 21 21 20 19 19 20 19 18 17 16 15 15 13 12 12 12 12 9 6 3 2 0 1 3 5 9 12 14 15 15 15 14 15 14 15 17 17 18 21 22 22 24 22 21 22 22
22 22 24 25 27 28 28 29 29 29 30 31 31 31 29 27 25 24 22 20 20 19 18 18 21 23 23 20 22 25 27 27 29 29 28 25 22 19 17 19 20 20 20 20 20 19 18 17 16 15 14 13 11 10 9 9 9 7 5 3 3 1 3 5 9 12 13 14 14 13 13 14 13 13 16 16 16 19 19 19 21 21 21 21 21
21 21 22 24 27 28 29 29 30 30 30 30 30 30 29 26 25 22 19 18 18 18 18 19 21 23 22 22 24 26 27 28 29 29 27 25 23 20 18 19 20 21 21 20 19 18 17 16 15 15 14 12 11 10 8 7 6 5 6 4 2 2 3 5 8 10 11 12 11 10 10 11 10 11 14 14 14 16 16 17 20 19 19 20 20
20 19 20 22 25 27 27 29 31 31 31 31 30 29 27 25 24 21 19 18 18 18 19 19 21 22 22 22 25 26 27 28 30 30 28 26 24 22 19 19 20 20 20 18 16 17 17 16 15 15 13 12 11 10 9 7 5 4 4 4 2 2 3 6 8 9 9 9 8 7 8 9 9 9 13 13 14 15 15 17 18 18 18 18 18
18 19 20 21 25 28 30 30 30 29 29 29 28 27 25 23 22 20 19 20 20 20 20 20 21 22 22 23 26 26 27 29 31 31 29 27 25 23 21 19 18 17 17 17 16 16 17 16 15 14 13 11 10 9 8 7 6 4 3 3 2 2 4 7 7 8 8 7 7 7 7 9 8 9 12 13 14 14 14 15 16 16 17 17 16
19 19 21 21 25 30 32 31 29 29 29 27 25 24 22 21 21 20 21 21 21 22 22 22 22 23 23 25 27 27 28 31 32 31 30 28 26 24 22 20 18 16 15 14 14 16 17 16 15 14 13 11 10 10 9 7 6 4 3 3 2 3 5 7 7 8 7 5 6 7 7 8 9 10 12 13 13 12 13 14 15 17 18 17 17
19 19 19 22 26 31 32 30 30 30 28 25 23 22 22 21 22 22 22 23 23 23 22 22 23 24 25 27 29 28 29 33 34 32 31 30 28 25 24 22 20 18 15 13 14 16 16 15 15 14 13 11 11 10 9 7 6 4 2 2 2 3 5 5 5 5 4 4 5 7 7 8 9 11 12 13 11 10 13 14 14 16 19 18 16
19 19 19 23 28 32 31 31 30 28 25 24 24 23 22 23 24 24 24 24 24 24 24 24 24 25 26 28 29 29 31 34 35 34 33 31 29 27 25 24 23 21 19 17 19 19 14 13 14 13 12 12 11 10 9 7 6 3 1 2 1 3 5 4 3 2 2 3 4 6 7 7 9 10 12 12 8 8 13 16 13 14 18 18 15
20 20 21 25 31 33 33 32 29 26 25 24 23 21 22 24 25 25 27 26 25 26 27 26 25 25 26 27 29 30 33 35 36 35 34 33 30 28 27 26 25 23 21 21 21 19 14 13 14 13 12 12 11 10 9 8 6 4 3 2 2 4 5 4 1 1 2 3 3 6 6 6 8 9 11 11 8 7 12 17 15 14 17 18 16
21 20 22 28 33 34 34 33 30 26 25 24 21 20 21 24 26 28 29 27 27 28 28 26 25 26 27 28 29 31 33 35 37 37 36 34 33 30 28 28 27 25 24 22 20 18 14 13 14 13 12 11 11 10 8 7 5 4 4 2 1 3 5 6 3 1 2 3 3 5 6 6 7 9 10 11 10 9 11 16 15 14 17 19 17
22 20 23 30 34 34 33 32 30 28 25 23 22 22 24 27 28 29 29 26 26 28 28 27 27 28 28 28 29 30 33 36 37 37 37 36 34 32 30 30 29 27 25 22 19 17 14 13 14 14 12 12 11 9 7 5 4 3 3 1 1 3 6 6 3 2 4 3 3 5 6 6 6 9 10 11 11 11 12 15 15 15 17 19 19
22 22 25 31 34 33 32 29 27 26 24 23 24 26 28 27 25 26 28 26 23 25 27 27 27 28 28 29 29 30 33 35 36 36 36 35 35 33 30 30 30 28 25 21 17 15 15 15 14 13 12 12 10 7 5 3 0 0 1 2 2 5 5 3 2 5 5 3 3 4 6 6 7 9 11 12 12 13 14 15 16 16 17 18 19
24 24 26 29 30 29 28 26 24 24 26 27 27 28 29 27 22 22 25 25 23 23 26 27 27 26 25 26 26 27 31 33 34 34 34 34 33 32 29 28 29 28 24 20 16 14 15 15 14 12 12 11 8 4 2 1 0 3 6 5 5 8 6 3 5 7 4 3 3 4 5 7 9 10 11 12 13 15 15 15 16 17 18 19 20
26 26 27 27 27 27 26 25 24 25 27 28 28 26 26 26 23 21 22 23 23 23 23 24 25 24 23 23 24 24 25 28 30 31 32 32 31 30 28 27 26 26 23 19 16 14 14 14 12 11 10 7 4 3 3 5 8 10 8 5 5 7 6 6 8 6 2 3 6 5 5 7 10 10 12 13 13 15 15 16 17 18 18 20 22
27 26 24 25 26 26 25 25 27 28 28 28 26 24 24 26 27 23 21 24 27 24 20 21 23 23 23 23 24 24 23 24 25 27 29 30 29 28 27 25 24 24 22 19 16 16 14 12 11 10 8 7 7 8 10 11 11 9 8 8 8 7 6 7 8 4 1 3 6 6 5 9 11 10 11 13 14 16 16 17 19 19 19 21 23
25 22 22 24 25 24 24 26 28 28 28 28 27 26 25 28 30 27 23 26 29 25 21 22 24 24 24 24 23 24 24 23 22 22 25 29 29 27 26 25 24 25 22 19 18 18 15 11 10 10 9 10 11 12 12 10 9 8 8 9 8 6 7 8 6 3 0 3 7 7 7 11 11 10 11 13 16 17 17 18 19 20 21 23 25
23 21 22 24 24 24 25 28 29 28 27 27 26 26 26 28 31 31 28 27 28 26 24 25 25 25 25 23 22 23 23 22 21 20 22 26 28 27 26 25 25 25 23 21 20 19 16 13 11 10 10 11 12 12 10 9 8 8 9 8 6 5 7 7 5 2 1 5 7 8 10 10 9 9 11 14 16 17 17 18 20 20 22 24 26
24 24 24 25 26 27 27 28 29 28 27 25 24 23 23 25 29 31 29 26 26 26 27 26 25 24 25 22 20 22 23 22 21 19 19 23 27 27 26 26 25 26 25 22 20 19 16 13 11 10 11 11 11 11 11 9 9 9 9 8 7 7 7 6 4 4 5 7 8 9 10 10 8 9 12 15 17 17 18 20 20 20 23 26 28
23 25 25 25 28 30 28 28 29 28 26 25 23 21 22 22 24 27 28 25 23 24 26 26 24 22 22 20 20 23 23 22 20 19 18 21 24 26 27 26 25 25 24 22 20 20 18 13 10 10 11 11 11 11 11 10 9 9 9 7 7 7 7 6 6 7 6 8 9 10 10 10 10 12 15 17 18 19 20 20 20 22 26 27 27
23 24 24 23 27 30 29 28 28 26 23 23 23 23 23 22 20 21 24 24 22 22 24 26 25 23 22 22 22 23 24 23 22 20 19 20 23 25 26 26 24 23 22 20 20 21 18 12 10 11 12 11 12 12 10 9 9 9 9 9 8 7 7 8 9 9 9 11 11 10 9 10 12 15 18 20 20 19 20 20 23 25 26 26 26
24 24 24 23 24 28 28 25 25 24 23 23 23 24 23 22 20 19 19 20 21 21 22 26 27 26 25 25 24 24 25 24 24 23 22 22 24 25 25 25 23 21 19 18 20 21 18 12 9 11 12 11 11 11 9 9 9 9 9 9 8 7 8 10 10 10 11 12 11 9 8 12 17 20 21 20 19 19 21 23 24 25 25 26 28
26 25 24 22 23 28 29 25 23 24 26 25 24 22 22 23 23 22 19 19 21 22 21 22 25 27 28 28 27 26 25 25 26 25 24 24 25 25 25 24 21 18 15 13 15 18 17 12 10 12 12 11 11 11 10 9 9 8 8 7 6 6 8 8 9 9 10 10 9 10 13 18 22 22 21 19 19 21 23 24 24 25 26 28 28
26 27 26 24 25 28 29 26 24 25 26 26 23 22 22 23 23 21 20 20 23 25 23 21 21 23 27 29 30 29 27 25 25 26 25 25 25 26 25 24 22 18 16 13 12 13 13 11 11 13 13 11 10 10 9 9 8 8 8 8 8 7 7 8 9 10 11 11 13 16 20 22 21 20 19 19 20 22 24 25 25 26 28 28 27
23 27 29 28 27 28 28 27 26 25 26 26 25 23 23 22 21 21 20 20 23 25 22 19 16 16 20 24 26 29 30 27 25 25 25 25 26 26 25 25 23 19 16 13 13 14 15 14 12 12 13 13 11 9 9 8 8 9 9 9 8 8 8 9 10 11 13 15 18 20 21 20 20 19 19 20 22 24 25 26 27 27 27 27 28
23 28 31 29 26 25 26 27 27 25 26 27 26 25 23 21 21 22 20 18 20 23 20 15 13 12 14 16 16 20 26 27 25 25 25 24 25 25 23 23 22 18 12 10 12 12 13 15 12 10 11 13 13 12 11 11 11 11 10 9 9 10 11 12 13 15 17 19 20 19 19 19 19 19 20 22 24 26 26 27 27 27 27 28 28
22 27 29 26 24 24 25 26 27 25 25 27 26 24 22 21 21 23 21 18 20 22 19 16 14 12 12 12 10 12 19 23 24 24 24 23 23 23 22 22 22 17 9 10 13 12 12 14 14 12 11 12 14 15 15 15 14 13 12 12 12 12 13 14 17 18 18 18 18 17 17 19 19 20 22 24 26 26 26 26 26 27 27 28 28
19 23 23 23 24 25 25 25 26 25 25 26 26 23 20 19 21 23 21 18 18 20 18 16 14 12 11 11 9 9 15 19 19 19 20 20 20 21 22 22 20 14 8 11 14 14 14 16 17 15 14 13 13 14 15 15 15 15 14 14 14 14 15 17 18 17 15 15 15 16 17 19 20 22 24 25 26 26 26 26 26 27 28 28 28
16 19 21 23 25 24 21 20 23 25 25 25 26 23 19 19 22 23 21 17 18 19 18 15 12 11 13 14 10 9 13 15 13 13 15 16 15 16 19 20 18 14 12 14 15 15 16 17 17 17 17 15 14 14 15 15 15 15 13 13 14 15 16 16 15 14 13 14 15 17 18 20 22 24 25 25 25 25 26 26 26 27 27 26 26
15 16 20 22 23 22 19 18 21 24 25 26 25 22 20 22 24 25 21 18 20 22 20 16 12 13 15 16 12 10 13 14 12 12 14 14 12 13 17 18 17 14 14 16 18 17 17 16 16 16 17 17 17 17 17 16 15 14 12 13 15 16 15 13 12 12 13 14 16 19 21 22 24 25 25 25 25 25 25 26 26 25 25 24 23
15 15 18 21 20 19 18 17 19 21 23 24 24 22 23 25 27 26 23 20 20 21 21 18 13 13 16 16 13 11 14 16 13 12 14 15 13 13 15 17 17 17 17 18 19 19 17 16 16 16 16 17 17 18 17 15 13 12 13 15 15 14 12 11 11 13 14 16 19 21 22 23 24 25 25 26 26 26 25 25 24 23 23 22 22
13 14 18 20 19 19 18 17 18 19 19 20 22 23 24 26 26 26 25 23 21 20 20 18 14 13 15 16 14 12 14 17 17 16 18 18 17 17 18 19 19 20 20 20 19 19 18 18 18 18 17 16 16 15 14 13 12 13 15 14 13 11 11 11 12 14 16 19 20 22 23 24 25 25 25 26 26 25 24 23 22 21 21 20 20
11 14 17 18 18 19 19 18 19 19 19 19 21 23 25 27 26 24 25 25 23 21 20 18 15 13 14 15 14 13 14 17 20 21 22 22 21 21 22 22 22 22 21 20 19 19 19 19 18 17 16 15 14 13 13 13 14 14 14 12 11 11 11 12 14 16 18 19 21 22 24 24 24 24 24 25 24 23 22 21 20 20 19 19 18
11 14 17 18 18 18 19 18 19 20 20 20 21 22 25 27 26 25 25 25 25 23 22 20 18 16 15 16 16 15 14 15 20 23 25 24 23 23 23 23 23 23 23 22 21 19 18 17 16 15 14 14 13 14 14 14 15 14 13 12 11 12 12 14 16 18 19 20 21 23 24 24 24 24 24 23 22 22 21 19 18 18 18 18 17
13 13 16 18 18 18 18 17 18 20 22 22 22 23 24 25 24 23 24 25 25 24 23 22 21 20 18 17 18 17 15 14 18 23 25 24 23 23 23 23 23 23 23 22 20 18 16 15 14 14 14 14 14 14 14 15 15 14 13 12 12 13 14 16 18 19 20 21 22 23 24 24 24 23 22 21 20 19 19 18 17 18 18 17 17
Wind_Direction
183 187 188 189 188 187 190 192 191 190 189 189 189 188 190 189 185 189 196 199 199 198 200 206 211 216 218 197 190 201 196 181 171 168 172 177 174 172 166 157 153 149 145 144 142 140 139 136 131 128 124 117 112 113 109 105 104 107 110 116 120 113 100 89 88 63 39 45 38 29 43 49 27 24 36 45 47 46 43 40 36 33 33 32 23
185 187 186 187 188 189 191 193 193 191 187 185 187 191 192 188 188 195 195 191 191 193 197 204 210 217 213 188 178 185 187 173 168 172 176 177 173 170 165 160 156 153 150 147 145 142 140 137 133 132 131 127 123 119 112 103 99 101 108 114 113 109 103 96 87 73 49 43 41 38 42 45 37 29 34 45 46 43 42 39 30 26 27 29 26
186 187 187 188 188 189 192 194 192 190 187 187 190 193 191 187 192 197 188 183 188 193 195 200 209 213 198 180 168 168 178 173 171 177 178 176 176 173 167 163 160 157 153 149 146 143 140 137 135 133 133 133 131 127 121 112 103 95 98 105 103 95 94 95 85 70 56 42 36 37 42 44 41 35 35 44 44 38 39 37 25 19 22 25 22
183 187 187 184 185 187 193 195 190 187 190 193 194 194 188 186 193 192 184 185 191 193 192 194 200 200 186 170 159 166 182 182 177 178 178 179 181 176 167 160 155 152 149 146 145 143 140 138 136 134 135 136 134 132 129 124 116 105 96 95 94 86 79 79 80 69 58 47 34 31 38 43 43 40 38 44 45 38 37 37 24 18 24 26 18
180 181 176 175 181 186 191 193 186 186 193 196 195 192 189 190 190 185 185 190 190 186 185 185 183 182 174 160 159 172 182 177 174 176 178 181 182 173 162 156 154 152 150 148 147 146 144 143 141 140 140 138 136 135 133 132 128 120 110 97 89 85 73 63 69 72 60 51 42 32 35 42 43 39 36 40 42 38 39 37 24 18 27 29 17
176 176 173 174 180 183 188 189 182 184 193 195 192 192 194 194 187 183 186 190 188 184 182 176 172 168 159 157 167 176 174 168 172 178 178 177 174 168 163 162 160 156 153 153 154 154 152 150 148 146 145 142 138 137 136 138 134 125 117 105 89 84 78 61 56 70 69 54 46 37 35 41 43 38 35 37 37 33 34 32 24 23 30 28 15
174 176 178 179 182 183 185 185 182 187 193 191 191 195 197 194 187 183 186 190 190 186 173 161 162 162 161 168 179 177 170 171 175 177 177 175 174 171 167 165 162 158 159 161 161 156 150 144 140 138 138 138 137 136 137 139 138 131 120 110 97 87 89 80 53 63 75 64 50 43 39 40 42 38 34 36 37 33 30 24 18 20 26 25 14
173 179 181 181 184 186 186 186 186 191 193 192 197 200 196 193 188 184 186 188 189 181 160 155 163 166 169 179 186 179 173 175 175 175 177 178 177 172 168 165 163 163 167 166 159 147 140 137 135 133 132 131 129 129 129 131 132 129 122 117 114 110 105 98 71 62 75 74 59 49 45 42 41 39 33 31 34 35 33 25 14 12 17 20 15
174 179 180 180 184 188 190 192 193 195 196 198 203 201 195 193 189 186 185 185 183 172 157 161 167 170 179 186 185 178 176 176 176 178 182 180 177 172 169 167 167 168 169 162 150 143 142 141 138 136 134 131 127 123 119 117 117 115 114 115 119 123 124 118 100 75 73 77 69 56 49 43 39 38 34 31 31 33 34 29 18 12 14 17 15
174 178 177 178 184 189 194 195 194 195 196 198 202 199 193 191 189 186 183 181 177 168 163 168 169 175 188 193 184 176 178 178 178 183 186 181 177 174 170 168 169 170 166 156 150 148 147 143 139 137 134 129 126 122 118 115 112 108 106 105 107 114 120 119 110 90 71 69 67 58 51 46 40 37 35 32 30 32 35 31 20 14 12 13 11
177 180 180 182 185 191 196 196 194 194 194 197 200 197 191 188 187 185 183 181 174 166 168 173 173 180 192 193 184 180 180 180 181 185 186 181 179 176 169 168 171 170 163 156 153 153 149 145 142 138 134 129 126 124 120 115 112 107 104 101 99 99 100 99 98 93 78 67 62 56 52 48 41 38 35 32 30 32 36 33 21 13 12 11 7
180 183 187 188 190 193 198 199 197 195 194 195 197 193 188 185 183 183 185 182 172 167 173 176 177 185 192 188 185 185 183 184 185 186 183 180 179 174 169 171 173 169 162 158 157 155 151 148 145 140 135 131 126 123 121 116 112 107 102 98 94 91 88 83 82 84 78 68 61 54 51 47 42 38 34 30 29 30 34 33 23 15 15 13 6
181 184 186 188 192 194 197 199 198 196 194 193 193 191 187 183 182 182 184 180 172 171 176 178 181 190 195 191 190 189 188 188 188 185 180 177 174 172 171 172 171 164 160 159 158 156 155 153 149 143 138 134 129 124 121 116 111 107 101 95 88 84 81 76 73 74 72 66 59 52 48 45 40 37 34 29 26 25 30 30 22 15 16 13 6
179 183 185 188 192 192 194 196 195 194 192 190 190 190 186 184 183 182 180 176 175 177 179 181 187 195 200 198 195 194 193 192 190 184 178 172 168 169 170 168 165 161 161 164 165 164 163 160 155 150 147 145 140 133 128 121 113 108 101 93 86 80 77 73 70 69 65 59 53 46 41 38 34 30 29 28 24 24 28 26 18 12 14 11 4
182 188 190 192 193 192 192 193 191 191 189 186 187 188 187 187 185 183 180 178 180 182 182 185 191 197 202 202 199 197 195 193 189 183 175 166 163 167 168 166 165 164 166 170 169 168 169 167 165 164 161 157 151 144 137 126 114 105 96 90 86 79 73 68 66 63 58 50 44 38 32 29 27 23 21 20 19 21 27 25 15 10 11 9 3
188 193 194 195 194 192 193 193 189 187 184 182 184 187 188 188 186 186 184 181 181 181 181 187 191 196 204 206 202 199 195 191 187 180 172 165 165 168 168 166 168 169 169 170 169 172 176 175 174 173 164 157 154 149 138 126 117 110 102 96 89 79 70 63 60 58 54 46 39 34 26 22 22 19 16 14 10 13 22 22 13 7 7 6 2
188 192 194 195 193 189 190 190 187 183 180 181 185 187 188 188 187 187 187 183 180 179 184 192 194 199 205 204 199 197 193 187 183 178 171 169 170 171 170 170 172 172 171 174 177 180 179 176 173 166 158 157 155 148 139 130 124 125 118 93 75 61 52 56 58 51 49 43 34 29 24 18 17 16 15 12 5 7 15 16 8 4 5 4 359
187 190 189 188 186 185 187 188 186 183 182 185 188 188 187 186 184 184 185 183 179 179 187 194 195 201 207 203 196 196 191 184 181 178 175 174 172 171 174 177 176 173 175 181 185 184 179 175 171 164 160 161 157 152 147 138 136 142 135 108 87 329 358 32 49 45 43 38 26 21 18 14 12 12 13 11 1 3 13 11 3 2 3 2 357
184 184 183 183 183 184 187 188 188 188 188 189 190 188 187 185 182 181 182 182 179 179 186 191 193 202 209 204 196 195 191 184 181 179 178 175 169 165 174 182 178 175 181 187 187 186 183 177 171 166 165 163 158 157 154 147 149 154 155 177 212 248 350 18 42 43 39 33 20 12 7 7 9 4 4 6 357 358 9 6 360 3 4 -0 355
184 179 180 186 188 187 189 190 190 192 192 189 187 187 187 184 183 182 181 179 179 180 184 187 192 201 208 201 194 195 194 186 181 180 178 173 165 161 172 186 185 182 188 192 187 186 185 177 172 172 170 166 162 160 156 153 156 148 140 152 153 49 25 38 49 45 40 32 19 4 354 359 5 351 348 358 359 0 5 1 359 5 4 358 355
185 178 177 185 189 187 187 191 192 192 189 186 185 186 187 186 187 185 180 177 179 180 182 186 193 202 206 198 193 195 195 187 181 180 177 171 166 165 171 185 193 192 193 193 188 186 185 180 178 176 172 169 168 164 159 156 156 150 135 125 107 49 42 57 59 52 43 25 7 357 347 352 358 343 338 351 5 10 7 357 358 8 8 0 356
187 181 179 184 186 184 185 189 192 190 185 182 182 184 185 187 188 183 178 179 179 179 182 186 192 200 203 197 194 195 192 187 183 181 178 172 170 170 170 179 192 197 196 193 190 190 189 185 182 179 175 173 172 168 167 163 161 167 155 115 97 53 51 55 52 49 44 12 347 353 351 347 351 342 339 353 11 15 2 353 1 13 15 13 10
183 179 181 185 184 183 185 187 186 183 181 181 181 181 183 184 181 176 176 179 179 181 185 187 191 197 198 194 194 195 191 187 184 182 179 175 173 174 174 174 180 189 193 193 196 198 194 188 184 181 177 177 177 175 174 169 169 180 162 115 83 61 62 52 39 39 31 353 344 356 350 346 347 341 346 4 16 8 355 359 17 22 17 18 22
175 176 182 183 179 180 182 181 179 179 179 180 181 183 183 180 176 175 178 180 181 183 186 188 191 195 194 193 194 194 191 188 186 184 182 179 177 178 178 175 177 181 181 186 204 208 196 185 186 185 181 181 183 182 180 176 179 189 160 120 95 77 67 45 34 36 13 343 351 355 347 347 346 345 356 9 10 0 359 12 27 23 12 10 12
171 175 181 178 176 177 178 177 177 178 179 181 185 187 187 181 175 176 181 183 184 185 187 191 195 195 193 194 196 194 191 190 189 186 184 184 182 181 182 179 179 180 177 185 207 215 201 187 191 189 184 188 188 186 187 183 182 184 136 118 117 84 57 24 23 35 348 350 0 348 345 350 349 354 2 0 357 1 2 6 15 12 6 5 2
169 172 175 172 171 174 175 176 179 180 180 184 188 191 187 179 175 179 184 187 189 190 190 193 195 193 191 193 196 195 192 192 192 190 188 188 186 185 185 182 181 184 185 190 206 215 204 194 197 192 189 193 192 191 197 193 184 159 100 68 62 64 33 2 25 122 334 1 11 343 346 0 357 359 359 351 359 18 355 353 7 12 3 2 359
163 168 173 171 171 174 176 178 180 182 183 184 185 185 182 178 179 184 187 190 195 196 193 192 191 190 191 193 197 198 196 195 194 193 192 192 191 190 189 187 186 189 191 194 205 212 205 196 197 195 194 196 194 194 202 203 189 147 98 64 52 51 8 354 26 85 332 10 19 342 354 22 5 354 352 349 7 29 357 343 360 11 359 356 356
167 172 175 173 172 174 177 179 182 184 183 180 178 180 182 185 189 189 189 193 196 196 194 192 191 191 192 194 198 200 199 199 199 198 197 197 196 195 194 192 191 194 197 200 206 211 206 200 199 198 196 197 197 194 195 201 192 139 100 52 316 299 322 345 21 328 318 9 29 345 356 25 3 346 350 348 357 19 7 345 350 3 357 353 354
173 174 174 174 175 177 180 183 185 183 177 174 179 185 187 190 194 194 195 199 200 195 194 194 194 194 195 197 201 203 202 203 203 203 202 201 201 202 201 199 196 197 201 208 213 211 205 200 199 200 198 196 197 192 189 200 129 69 287 295 244 247 279 325 309 284 305 5 28 343 349 11 359 343 347 347 348 2 4 349 348 358 356 351 351
171 169 170 174 178 181 182 184 183 178 175 178 186 189 189 192 196 194 196 200 200 198 199 198 196 196 198 202 207 209 208 208 207 206 206 206 206 207 207 206 202 200 205 214 215 209 204 200 199 202 199 195 194 188 184 355 44 235 265 279 238 226 234 236 251 273 315 1 343 332 345 359 353 338 340 347 347 351 354 347 346 353 351 347 346
169 169 171 174 180 185 184 182 179 177 177 183 190 189 186 189 194 195 197 198 197 201 207 207 202 199 200 205 209 210 211 213 212 208 208 209 209 209 210 211 206 202 208 215 209 198 198 199 196 195 196 202 212 206 215 228 217 217 235 253 245 243 230 220 248 281 341 332 324 344 355 344 339 335 340 346 342 342 347 346 346 350 348 342 339
171 173 175 180 186 190 187 182 179 177 178 184 190 189 185 187 191 197 204 203 201 203 206 204 201 199 201 207 208 204 206 213 216 212 208 208 209 208 209 208 203 199 204 211 205 194 190 190 194 199 207 222 228 219 218 226 229 229 225 223 241 258 234 227 260 290 234 285 332 2 353 326 325 330 338 343 341 340 342 341 343 345 340 334 333
176 178 181 186 189 189 185 183 182 180 181 186 190 190 189 191 194 197 199 198 199 203 203 199 199 200 202 207 211 206 204 210 216 213 208 206 206 206 205 203 199 198 201 206 206 197 185 182 198 210 210 214 223 226 225 223 228 237 233 234 255 264 229 234 275 322 152 311 338 345 319 312 319 328 335 338 339 339 338 334 335 335 330 329 331
179 182 185 190 189 185 184 185 184 180 183 190 192 191 193 197 199 200 198 194 195 200 202 200 202 203 204 207 211 210 206 208 213 214 210 206 205 205 204 203 200 200 202 207 208 200 187 182 195 209 212 215 226 234 230 218 218 228 230 235 253 249 231 250 293 338 307 305 311 307 309 318 329 335 334 332 332 333 330 328 329 328 326 326 327
182 188 191 192 190 186 185 186 185 183 185 192 193 190 192 200 204 205 204 202 199 200 201 201 202 204 206 207 207 207 206 206 209 212 211 208 206 206 206 205 205 205 207 212 210 201 188 182 192 211 222 223 223 227 226 217 216 226 229 228 227 227 238 264 276 252 262 289 303 315 325 329 332 335 332 329 328 326 323 326 328 325 323 325 328
187 196 199 195 189 185 185 187 188 186 187 193 196 190 188 196 207 210 209 207 203 204 206 205 201 200 202 202 201 201 203 203 205 208 210 211 211 210 210 210 211 212 213 215 210 199 188 183 192 212 222 220 217 223 227 221 218 224 229 226 221 226 238 243 233 236 270 310 326 335 339 334 330 329 324 320 319 319 321 326 326 323 325 329 330
192 204 205 198 189 186 187 191 192 188 185 193 200 197 191 193 203 209 209 204 198 202 210 211 206 200 195 193 195 198 199 200 202 205 209 211 212 213 214 216 218 219 217 214 209 199 188 180 192 213 221 219 219 224 228 225 218 217 220 219 216 224 238 240 242 261 296 319 324 327 334 330 322 317 312 311 313 317 323 326 325 326 328 328 325
195 206 207 200 191 188 189 191 191 189 188 194 201 200 196 196 198 202 205 198 191 196 212 217 214 209 203 198 197 200 202 204 205 207 211 212 210 210 212 215 217 218 216 211 207 201 192 183 196 215 218 218 219 219 220 219 216 218 228 232 227 228 243 255 269 289 307 318 323 327 324 311 306 307 309 311 314 319 325 327 326 326 324 321 321
198 205 204 197 187 184 187 190 191 191 194 200 204 201 197 198 200 202 204 199 189 192 207 218 219 218 215 210 206 206 207 210 213 214 215 213 209 206 207 208 207 206 207 209 209 204 198 195 209 217 214 215 220 218 214 215 217 220 231 239 234 235 255 275 289 295 301 308 316 315 304 299 302 307 310 312 316 322 326 326 323 320 318 319 322
203 205 202 193 183 183 189 193 194 195 198 202 204 200 195 196 198 195 194 194 189 188 200 216 221 223 225 222 218 217 217 217 219 219 216 213 210 207 204 204 199 191 189 199 211 213 206 206 218 221 214 211 215 212 209 214 219 220 226 233 235 245 267 283 283 282 288 295 299 301 302 302 304 307 308 312 319 323 323 320 318 318 319 322 324
205 203 197 191 186 187 192 195 196 198 201 202 202 201 198 196 192 184 183 191 189 184 194 212 218 222 232 234 230 229 228 227 225 223 218 215 214 210 207 207 201 187 178 192 215 223 215 210 215 218 212 208 209 207 206 212 218 221 226 232 237 245 255 262 266 273 286 295 299 303 305 304 304 307 311 317 321 321 319 318 319 321 323 324 324
204 198 194 193 192 193 196 198 200 202 203 203 204 202 197 192 187 181 181 191 189 183 192 210 208 211 238 249 242 234 232 230 228 225 222 220 218 215 213 209 198 182 173 195 215 217 208 205 210 215 209 208 210 209 206 208 210 212 215 220 230 241 247 255 267 280 292 299 302 304 303 303 306 312 317 319 319 319 319 319 321 322 324 324 325
210 202 198 199 202 204 206 205 204 204 203 203 202 199 194 194 193 185 182 189 189 185 193 207 202 201 227 245 243 228 223 223 224 225 225 225 222 218 215 206 190 177 182 210 212 208 202 200 205 207 199 194 197 202 209 215 217 220 228 238 245 251 259 270 282 292 297 300 303 303 305 309 314 317 318 319 319 320 320 321 322 324 325 325 326
212 207 203 202 205 209 210 208 205 205 205 204 201 197 195 197 194 185 183 190 189 183 188 201 202 198 206 215 219 213 207 210 219 225 224 225 224 219 214 203 188 180 197 211 207 208 209 205 206 210 206 198 197 206 216 223 227 232 244 252 255 264 276 285 292 298 300 302 305 307 311 315 318 319 321 322 321 321 321 323 324 325 325 325 327
208 205 201 199 201 205 206 204 204 207 207 205 201 197 191 188 185 183 185 189 185 183 190 198 199 196 195 197 201 201 193 197 213 221 216 217 219 213 205 196 186 187 204 208 201 202 205 205 208 215 218 217 217 218 221 228 234 240 249 259 268 280 288 291 294 299 303 307 311 312 316 320 321 321 323 324 322 321 323 324 325 325 325 326 328
208 205 200 200 202 206 206 203 203 206 207 205 201 195 187 183 183 185 187 186 183 188 197 197 187 184 188 189 193 190 180 183 202 212 205 206 209 198 189 188 188 192 204 209 206 205 205 206 209 215 218 223 227 229 233 240 245 247 256 270 280 286 289 289 294 302 307 310 313 315 319 322 323 322 323 323 322 322 324 324 324 325 326 327 329
209 205 200 201 205 209 207 201 199 202 203 204 203 198 191 188 188 188 190 190 189 193 199 199 192 187 185 184 189 191 181 180 189 197 195 198 201 189 182 188 196 200 205 209 210 211 213 215 218 222 226 230 234 237 241 245 249 256 269 279 283 283 284 290 299 306 309 311 314 317 320 322 323 323 323 322 321 322 323 323 324 326 327 328 330
209 202 202 205 211 214 210 202 200 202 201 203 207 206 199 195 194 193 194 196 197 196 197 200 202 199 191 188 194 200 192 187 187 187 187 190 191 186 185 191 197 202 208 213 214 213 216 221 226 231 235 236 236 238 240 246 257 270 276 277 274 273 281 292 300 305 308 310 313 316 319 322 323 323 322 321 321 322 323 323 325 327 329 330 330
214 207 208 211 213 216 216 211 209 210 209 208 212 212 208 205 205 201 198 201 205 206 205 206 206 203 199 199 205 210 205 199 196 193 192 194 194 193 195 200 203 204 209 213 215 217 221 224 227 230 230 230 234 240 249 261 272 275 272 267 266 274 285 293 297 302 305 309 313 317 320 322 323 322 321 321 322 322 323 325 327 328 330 331 330
226 218 216 215 212 213 217 218 217 217 218 217 215 214 212 214 216 212 206 205 208 211 213 214 213 211 212 215 218 221 222 218 211 206 205 206 204 202 204 207 208 208 211 215 219 222 223 222 221 222 225 233 244 254 263 271 274 269 262 263 270 278 285 290 295 300 305 309 315 319 320 321 322 321 321 322 322 322 323 326 328 329 331 332 332
221 215 216 218 217 215 217 221 223 223 224 223 221 217 215 217 218 216 210 208 208 209 212 214 215 217 223 230 231 233 240 239 224 215 214 212 207 204 206 209 210 212 217 221 223 222 219 216 218 225 234 244 255 262 269 273 269 262 260 265 273 279 284 290 295 302 307 312 317 319 319 320 321 321 321 322 323 323 324 327 329 330 332 334 334